TimeEST,TemperatureF,Dew PointF,Humidity,Sea Level PressureIn,VisibilityMPH,Wind Direction,Wind SpeedMPH,Gust SpeedMPH,PrecipitationIn,Events,Conditions,WindDirDegrees,DateUTC
12:00 AM,75,72,87,29.87,,South,12.7,,,,Overcast,190,2012-03-11 14:00:00
12:00 AM,75.2,71.6,89,29.86,6.2,South,12.7,-,N/A,,Mostly Cloudy,190,2012-03-11 14:00:00
12:30 AM,75.2,71.6,89,29.86,6.2,South,11.5,-,N/A,,Mostly Cloudy,180,2012-03-11 14:30:00
1:00 AM,75,72,87,29.85,,South,11.5,,,,,180,2012-03-11 15:00:00
1:00 AM,75.2,71.6,89,29.83,6.2,South,11.5,-,N/A,,Mostly Cloudy,180,2012-03-11 15:00:00
1:30 AM,75.2,71.6,89,29.83,6.2,South,11.5,-,N/A,,Mostly Cloudy,170,2012-03-11 15:30:00
2:00 AM,75.2,71.6,89,29.83,6.2,South,9.2,-,N/A,,Mostly Cloudy,170,2012-03-11 16:00:00
2:30 AM,75.2,69.8,83,29.80,6.2,South,10.4,-,N/A,,Scattered Clouds,180,2012-03-11 16:30:00
3:00 AM,76,70,76,29.80,,South,10.4,,,,,190,2012-03-11 17:00:00
3:00 AM,77.0,69.8,78,29.80,6.2,South,10.4,-,N/A,,Scattered Clouds,190,2012-03-11 17:00:00
3:30 AM,75.2,71.6,89,29.80,6.2,SSE,12.7,-,N/A,,Mostly Cloudy,160,2012-03-11 17:30:00
3:53 AM,75.2,73.4,94,29.80,1.2,ESE,9.2,-,N/A,Rain,Rain Showers,110,2012-03-11 17:53:00
4:00 AM,74,72,92,29.82,,East,6.9,,,,,100,2012-03-11 18:00:00
4:00 AM,75.2,71.6,89,29.80,5.6,East,6.9,-,N/A,Rain,Light Rain Showers,100,2012-03-11 18:00:00
4:19 AM,75.2,73.4,94,29.80,2.5,ESE,6.9,-,N/A,Rain,Rain Showers,120,2012-03-11 18:19:00
4:30 AM,73.4,73.4,100,29.80,0.9,SE,6.9,-,N/A,Rain,Heavy Rain Showers,130,2012-03-11 18:30:00
4:40 AM,73.4,73.4,100,29.80,3.1,SE,6.9,-,N/A,Rain,Light Rain Showers,130,2012-03-11 18:40:00
5:00 AM,73.4,73.4,100,29.80,1.2,South,8.1,-,N/A,Rain,Rain Showers,170,2012-03-11 19:00:00
5:10 AM,73.4,71.6,94,29.80,4.3,South,9.2,-,N/A,Rain,Light Rain Showers,180,2012-03-11 19:10:00
5:19 AM,73.4,71.6,94,29.80,2.5,South,10.4,-,N/A,Rain,Rain Showers,180,2012-03-11 19:19:00
5:30 AM,73.4,71.6,94,29.80,5.0,South,6.9,-,N/A,Rain,Light Rain Showers,170,2012-03-11 19:30:00
5:58 AM,75.2,73.4,94,29.80,3.1,SE,8.1,-,N/A,Rain,Light Rain Showers,130,2012-03-11 19:58:00
6:00 AM,74,73,95,29.83,2,East,12.7,,,Rain,Heavy Rain Showers,100,2012-03-11 20:00:00
6:00 AM,73.4,73.4,100,29.83,2.5,East,12.7,-,N/A,Rain,Rain Showers,100,2012-03-11 20:00:00
6:30 AM,73.4,73.4,100,29.83,3.7,SSE,8.1,-,N/A,Rain,Light Rain Showers,160,2012-03-11 20:30:00
7:00 AM,74,73,94,29.84,,South,5.8,,,,,170,2012-03-11 21:00:00
7:00 AM,75.2,73.4,94,29.83,5.0,South,5.8,-,N/A,,Mostly Cloudy,170,2012-03-11 21:00:00
7:30 AM,75.2,73.4,94,29.83,6.2,South,6.9,-,N/A,,Mostly Cloudy,170,2012-03-11 21:30:00
8:00 AM,77.0,73.4,89,29.86,6.2,WNW,4.6,-,N/A,,Mostly Cloudy,290,2012-03-11 22:00:00
8:30 AM,77.0,73.4,89,29.86,6.2,South,6.9,-,N/A,,Mostly Cloudy,170,2012-03-11 22:30:00
9:00 AM,77,72,82,29.87,4,South,9.2,,,Rain,Light Rain Showers,180,2012-03-11 23:00:00
9:00 AM,77.0,73.4,89,29.86,3.7,South,9.2,-,N/A,Rain,Light Rain Showers,180,2012-03-11 23:00:00
9:25 AM,78.8,73.4,83,29.86,6.2,South,11.5,-,N/A,,Mostly Cloudy,180,2012-03-11 23:25:00
9:30 AM,78.8,75.2,89,29.86,6.2,South,11.5,-,N/A,,Mostly Cloudy,180,2012-03-11 23:30:00
10:00 AM,79,74,80,29.87,,South,10.4,,,,,180,2012-03-12 00:00:00
10:04 AM,78.8,73.4,83,29.86,3.7,South,11.5,-,N/A,,Mostly Cloudy,190,2012-03-12 00:04:00
10:30 AM,78.8,73.4,83,29.86,6.2,South,8.1,-,N/A,,Mostly Cloudy,170,2012-03-12 00:30:00
11:00 AM,82.4,77.0,84,29.83,6.2,South,9.2,-,N/A,,Scattered Clouds,180,2012-03-12 01:00:00
11:30 AM,82.4,77.0,84,29.83,6.2,SSE,12.7,-,N/A,,Mostly Cloudy,150,2012-03-12 01:30:00
11:51 AM,78.8,75.2,89,29.86,2.5,South,13.8,-,N/A,Rain,Rain Showers,170,2012-03-12 01:51:00
12:00 PM,77,75,92,29.86,3,SSE,11.5,,,Rain,Light Rain Showers,150,2012-03-12 02:00:00
12:00 PM,77.0,75.2,94,29.86,3.1,SSE,11.5,-,N/A,Rain,Light Rain Showers,150,2012-03-12 02:00:00
12:16 PM,77.0,75.2,94,29.83,5.0,South,12.7,-,N/A,Rain,Light Rain Showers,170,2012-03-12 02:16:00
12:30 PM,77.0,75.2,94,29.83,6.2,South,11.5,-,N/A,,Mostly Cloudy,170,2012-03-12 02:30:00
1:00 PM,78.8,75.2,89,29.83,3.7,South,11.5,-,N/A,,Mostly Cloudy,170,2012-03-12 03:00:00
1:30 PM,78.8,75.2,89,29.83,5.0,SE,10.4,-,N/A,Rain,Light Rain Showers,130,2012-03-12 03:30:00
2:00 PM,78.8,73.4,83,29.83,6.2,SSW,12.7,-,N/A,,Mostly Cloudy,200,2012-03-12 04:00:00
2:21 PM,78.8,71.6,78,29.80,3.1,South,12.7,-,N/A,Rain,Light Rain Showers,190,2012-03-12 04:21:00
2:30 PM,77.0,73.4,89,29.80,3.1,South,12.7,-,N/A,Rain,Light Rain Showers,190,2012-03-12 04:30:00
2:35 PM,77.0,73.4,89,29.80,3.7,South,11.5,-,N/A,,Mostly Cloudy,190,2012-03-12 04:35:00
3:00 PM,80.6,73.4,79,29.80,6.2,South,10.4,-,N/A,,Mostly Cloudy,190,2012-03-12 05:00:00
3:30 PM,80.6,75.2,84,29.80,6.2,South,10.4,-,N/A,,Scattered Clouds,190,2012-03-12 05:30:00
4:00 PM,80,73,74,29.81,,South,11.5,,,,,190,2012-03-12 06:00:00
4:00 PM,80.6,73.4,79,29.80,6.2,South,11.5,-,N/A,,Scattered Clouds,190,2012-03-12 06:00:00
4:30 PM,82.4,73.4,74,29.80,6.2,South,10.4,-,N/A,,Scattered Clouds,190,2012-03-12 06:30:00
5:00 PM,80.6,73.4,79,29.80,3.7,South,10.4,-,N/A,Rain,Light Rain Showers,170,2012-03-12 07:00:00
5:30 PM,77.0,75.2,94,29.80,6.2,South,5.8,-,N/A,,Mostly Cloudy,170,2012-03-12 07:30:00
5:40 PM,77.0,75.2,94,29.83,2.5,Calm,Calm,-,N/A,Rain,Light Rain Showers,0,2012-03-12 07:40:00
6:00 PM,76,74,93,29.83,2,ESE,8.1,,,Rain,Light Rain Showers,120,2012-03-12 08:00:00
6:00 PM,77.0,75.2,94,29.83,2.5,ESE,8.1,-,N/A,Rain,Light Rain Showers,120,2012-03-12 08:00:00
6:30 PM,77.0,73.4,89,29.83,6.2,South,11.5,-,N/A,,Mostly Cloudy,170,2012-03-12 08:30:00
6:34 PM,75.2,75.2,100,29.83,3.1,South,11.5,-,N/A,Rain,Light Rain Showers,170,2012-03-12 08:34:00
6:50 PM,75.2,73.4,94,29.83,6.2,South,10.4,-,N/A,,Mostly Cloudy,170,2012-03-12 08:50:00
6:55 PM,75.2,73.4,94,29.83,6.2,South,8.1,-,N/A,,Mostly Cloudy,180,2012-03-12 08:55:00
7:30 PM,77.0,73.4,89,29.83,3.1,SSE,6.9,-,N/A,Rain,Light Rain Showers,150,2012-03-12 09:30:00
7:50 PM,75.2,73.4,94,29.83,2.5,SE,8.1,-,N/A,,Mostly Cloudy,140,2012-03-12 09:50:00
8:00 PM,75.2,73.4,94,29.83,3.7,South,3.5,-,N/A,Rain,Light Rain Showers,170,2012-03-12 10:00:00
8:16 PM,75.2,73.4,94,29.83,6.2,South,1.2,-,N/A,,Mostly Cloudy,180,2012-03-12 10:16:00
8:30 PM,75.2,73.4,94,29.83,5.0,SSE,4.6,-,N/A,,Mostly Cloudy,160,2012-03-12 10:30:00
8:33 PM,77.0,73.4,89,29.83,2.5,SSE,3.5,-,N/A,Rain,Light Rain Showers,150,2012-03-12 10:33:00
9:00 PM,75,74,97,29.87,3,SSE,9.2,,,Rain,Light Rain Showers,150,2012-03-12 11:00:00
9:00 PM,75.2,75.2,100,29.86,3.1,SSE,9.2,-,N/A,Rain,Light Rain Showers,150,2012-03-12 11:00:00
9:10 PM,75.2,75.2,100,29.86,1.2,SE,10.4,-,N/A,Rain,Light Rain Showers,130,2012-03-12 11:10:00
9:30 PM,75.2,75.2,100,29.89,3.7,SSE,6.9,-,N/A,Rain,Light Rain Showers,150,2012-03-12 11:30:00
9:50 PM,75.2,73.4,94,29.89,6.2,South,8.1,-,N/A,,Mostly Cloudy,190,2012-03-12 11:50:00
10:00 PM,76,74,91,29.89,,South,8.1,,,,,170,2012-03-12 12:00:00
10:00 PM,75.2,73.4,94,29.89,6.2,South,8.1,-,N/A,,Mostly Cloudy,170,2012-03-12 12:00:00
10:30 PM,77.0,73.4,89,29.86,6.2,South,6.9,-,N/A,,Mostly Cloudy,190,2012-03-12 12:30:00
11:00 PM,77.0,73.4,89,29.86,6.2,SSE,3.5,-,N/A,,Mostly Cloudy,150,2012-03-12 13:00:00
11:13 PM,77.0,73.4,89,29.86,1.2,NNE,5.8,-,N/A,Rain,Rain Showers,20,2012-03-12 13:13:00
11:20 PM,75.2,73.4,94,29.86,3.7,South,12.7,-,N/A,Rain,Light Rain Showers,170,2012-03-12 13:20:00
11:30 PM,75.2,73.4,94,29.86,5.0,SSE,12.7,-,N/A,Rain,Light Rain Showers,160,2012-03-12 13:30:00